Pemberton, British Columbia

5:05 AM PST on December 17, 2017 (GMT -0800)
Pemberton

Weather History for CWGP - March, 2014

Change the Weather History Date:

Thursday, March 27, 2014

  Actual Average Record
Temperature  
Mean Temperature 46 °F -  
Max Temperature 57 °F 50 °F - ()
Min Temperature 34 °F 31 °F - ()
Degree Days  
Heating Degree Days 20    
Moisture  
Dew Point 30 °F    
Average Humidity 61    
Maximum Humidity 91    
Minimum Humidity 21    
Precipitation  
Precipitation 0.00 in - - ()
Sea Level Pressure  
Sea Level Pressure 29.71 in    
Wind  
Wind Speed - ()    
Max Wind Speed -    
Max Gust Speed -    
T = Trace of Precipitation, MM = Missing Value Source: Averaged Metar Reports

Daily Weather History Graph

Daily Weather History Graph

Search for Another Location

Airport or City:

Trip Planner

Search our weather history database for the weather conditions in past years. The results will help you decide how hot, cold, wet, or windy it might be!

Date:

Astronomy

Mar. 27, 2014 Rise Set
Actual Time 6:57 AM PDT 7:35 PM PDT
Civil Twilight 6:25 AM PDT 8:08 PM PDT
Nautical Twilight 5:46 AM PDT 8:47 PM PDT
Astronomical Twilight 5:05 AM PDT 9:28 PM PDT
Moon 5:12 AM PDT (3/27) 4:12 PM PDT (3/27)
Length of Visible Light 13h 42m
Length of Day
12h 37m
Waning Crescent, 12% of the Moon is Illuminated
Mar 27
Waning Crescent
Mar 30
New
Apr 7
First Quarter
Apr 15
Full
Apr 22
Last Quarter

Hourly Weather History & Observations

Time (PDT) Temp. Dew Point Humidity Pressure Visibility Wind Dir Wind Speed Gust Speed Precip Events Conditions
12:00 AM 42.4 °F 28.8 °F 58% 29.60 in - North - - N/A   Unknown
1:00 AM 40.1 °F 30.2 °F 68% 29.61 in - North - - N/A   Unknown
2:00 AM 38.1 °F 32.9 °F 81% 29.62 in - North - - N/A   Unknown
3:00 AM 37.9 °F 33.1 °F 83% 29.64 in - North - - N/A   Unknown
4:00 AM 36.3 °F 33.1 °F 88% 29.65 in - North - - N/A   Unknown
5:00 AM 38 °F 31 °F 69% 29.66 in - Calm Calm - -  
5:00 AM 37.8 °F 31.5 °F 78% 29.66 in - North - - N/A   Unknown
6:00 AM 35.8 °F 30.9 °F 82% 29.67 in - North - - N/A   Unknown
7:00 AM 36.1 °F 30.2 °F 79% 29.69 in - North - - N/A   Unknown
8:00 AM 34.9 °F 32.0 °F 89% 29.71 in - North - - N/A   Unknown
9:00 AM 39.4 °F 29.8 °F 69% 29.71 in - North - - N/A   Unknown
10:00 AM 43.0 °F 28.2 °F 56% 29.72 in - North - - N/A   Unknown
11:00 AM 46 °F 25 °F 30% 29.73 in - Calm Calm - -  
11:00 AM 45.9 °F 24.6 °F 43% 29.73 in - North - - N/A   Unknown
12:00 PM 47.5 °F 24.6 °F 41% 29.73 in - North - - N/A   Unknown
1:00 PM 49.8 °F 24.3 °F 37% 29.72 in - North - - N/A   Unknown
2:00 PM 52.0 °F 22.8 °F 32% 29.71 in - North - - N/A   Unknown
3:00 PM 53.4 °F 25.7 °F 34% 29.70 in - North - - N/A   Unknown
4:00 PM 53.2 °F 25.3 °F 34% 29.71 in - North - - N/A   Unknown
5:00 PM 56 °F 28 °F 21% 29.71 in - Calm Calm - -  
5:00 PM 56.1 °F 27.5 °F 33% 29.71 in - North - - N/A   Unknown
6:00 PM 53.1 °F 32.4 °F 45% 29.72 in - North - - N/A   Unknown
7:00 PM 50.2 °F 34.7 °F 55% 29.73 in - North - - N/A   Unknown
8:00 PM 47.8 °F 36.7 °F 65% 29.75 in - North - - N/A   Unknown
9:00 PM 43.5 °F 36.5 °F 76% 29.77 in - North - - N/A   Unknown
10:00 PM 41.0 °F 36.9 °F 85% 29.79 in - North - - N/A   Unknown
11:00 PM 40 °F 38 °F 89% 29.81 in - Calm Calm - -  
11:00 PM 40.3 °F 37.9 °F 91% 29.81 in - North - - N/A   Unknown